Torna al catalogo

GALILEO 23

2C9

AttivoNavigazioneMEO
NORAD 43566·PAYLOAD·🇪🇺 EU

Lanciato Jul 25, 2018 da Guiana Space Centre

Loading…

Prossimi Passaggi (prossime 24 ore)

TLE

AggiornatoSource: CelesTrak SupGP

Epoca: Sep 13, 2026, 23:59 UTC

1 43566C 18060C   26256.99979167  .00000000  00000+0  00000+0 0  2561
2 43566  57.1361 339.3875 0003528 273.2845  37.7070  1.70476559    15

Traccia GALILEO 23 in tempo reale con AllMySat

Download on the App Store